Regional Weather Roundup
Issued by NWS

Home | Current Version | Previous Version | Graphics & Text | Print | Product List | Glossary On
Versions: 1 2 3 4 5 6 7 8 9 10 11 12 13 14 15 16 17 18 19 20 21 22 23 24 25 26 27 28 29 30 31 32 33 34 35 36 37 38 39 40 41 42 43 44 45 46 47 48 49 50
154
ASUS43 KTOP 250359
RWRKS

WEATHER ROUNDUP FOR KANSAS
NATIONAL WEATHER SERVICE GOODLAND KS
1000 PM CST SAT FEB 24 2018

NOTE:  "FAIR" INDICATES FEW OR NO CLOUDS BELOW 12,000 FEET WITH NO
SIGNIFICANT WEATHER AND/OR OBSTRUCTIONS TO VISIBILITY.

KSZ001>006-013>018-027>032-041>047-250500-
NORTHWEST KANSAS

CITY           SKY/WX    TMP DP  RH WIND       PRES   REMARKS
GOODLAND       CLEAR     21  11  65 CALM      29.87R
HAYS           CLEAR     25  12  58 W6        29.93R
HILL CITY      CLEAR     27  15  61 NW5       29.91R
RUSSELL        CLEAR     27  15  61 W5        29.91R
$$

KSZ061>065-074>080-084>089-250500-
SOUTHWEST KANSAS

CITY           SKY/WX    TMP DP  RH WIND       PRES   REMARKS
DODGE CITY     CLEAR     27   7  42 N5        29.94R
GARDEN CITY    CLEAR     27   5  39 NE10      29.93R WCI  17
GREAT BEND     CLEAR     26  16  65 W6        29.94R
LIBERAL        CLEAR     27  19  72 S8        29.92R
$$

KSZ066>073-081>083-090>101-250500-
SOUTHEAST KANSAS

CITY           SKY/WX    TMP DP  RH WIND       PRES   REMARKS
CHANUTE        CLEAR     34  30  85 SW7       29.96R
COFFEYVILLE    CLEAR     35  32  88 SW6       29.98R
HUTCHINSON     CLEAR     24  23  96 CALM      29.94R
MEDICINE LODGE   N/A     29  27  92 N6        29.96R
NEWTON         CLEAR     31  29  92 W7        29.94R
PARSONS        CLEAR     32  31  96 CALM      29.98R
WICHITA INTL   CLEAR     32  29  88 SW8       29.95R
WICHITA JABRA  CLEAR     33  30  88 SW8       29.94R
WICHITA MCCONL CLEAR     35  30  82 SW6       29.94R
WINFIELD       CLEAR     34  32  92 S5        29.98R
$$

KSZ007>012-019>026-033>040-048>060-102>105-250500-
NORTHEAST KANSAS

CITY           SKY/WX    TMP DP  RH WIND       PRES   REMARKS
CONCORDIA      CLEAR     31  21  66 W13       29.88R WCI  21
EMPORIA        CLEAR     25  23  92 SW7       29.92R
LAWRENCE       CLEAR     32  29  88 S5        29.90R
MANHATTAN      CLEAR     27  25  92 CALM      29.89R FOG
OLATHE IND     CLEAR     32  29  88 SW8       29.91R
OLATHE EXE     CLEAR     32  29  88 W9        29.90R
SALINA         CLEAR     34  23  64 W8        29.93R
TOPEKA BILLARD CLEAR     32  29  88 SW5       29.90R
TOPEKA FORBES  CLEAR     32  28  85 SW12      29.89R WCI  23
$$




USA.gov is the U.S. government's official web portal to all federal, state and local government web resources and services.